BEL5GR EBBR-EDDM

Flight info

Callsign BEL5GR
Flight time 0h 55m
Altitude 35000
Route SOPOK Y863 ROPUV L607 EMGOD DCT MOVUM T109 HAREM T104 ROKIL ROKIL1A
Aircraft A319/M-DE3FGIJ1LORVWY/H

Departure

Time 2026-05-01 09:52
Airport Brussels Airport (EBBR)

Arrival

Time 2026-05-01 10:48
Airport Munich Airport (EDDM)
Time Latitude Longitude Altitude Speed Heading
2026-05-01 09:25 50.90263 4.48518 119 ft 0 kts 335°
2026-05-01 09:42 50.90249 4.48528 118 ft 4 kts 335°
2026-05-01 09:43 50.90191 4.48559 119 ft 4 kts 13°
2026-05-01 09:43 50.90180 4.48552 121 ft 2 kts 63°
2026-05-01 09:43 50.90179 4.48549 121 ft 0 kts 65°
2026-05-01 09:46 50.90182 4.48559 120 ft 3 kts 65°
2026-05-01 09:46 50.90199 4.48617 123 ft 8 kts 65°
2026-05-01 09:46 50.90231 4.48729 121 ft 14 kts 65°
2026-05-01 09:46 50.90278 4.48893 124 ft 18 kts 65°
2026-05-01 09:47 50.90326 4.49059 120 ft 16 kts 65°
2026-05-01 09:47 50.90375 4.49229 123 ft 17 kts 65°
2026-05-01 09:47 50.90346 4.49359 124 ft 13 kts 141°
2026-05-01 09:47 50.90264 4.49397 125 ft 13 kts 193°
2026-05-01 09:48 50.90167 4.49358 129 ft 15 kts 195°
2026-05-01 09:48 50.90053 4.49312 130 ft 19 kts 194°
2026-05-01 09:48 50.89922 4.49258 136 ft 19 kts 195°
2026-05-01 09:48 50.89805 4.49210 143 ft 16 kts 193°
2026-05-01 09:49 50.89707 4.49171 148 ft 14 kts 194°
2026-05-01 09:49 50.89620 4.49159 154 ft 11 kts 153°
2026-05-01 09:49 50.89561 4.49187 157 ft 8 kts 190°
2026-05-01 09:49 50.89503 4.49164 160 ft 9 kts 194°
2026-05-01 09:50 50.89423 4.49131 163 ft 15 kts 194°
2026-05-01 09:50 50.89320 4.49089 167 ft 15 kts 194°
2026-05-01 09:50 50.89227 4.49051 173 ft 13 kts 194°
2026-05-01 09:50 50.89142 4.49020 177 ft 11 kts 178°
2026-05-01 09:51 50.89141 4.49064 176 ft 0 kts 72°
2026-05-01 09:51 50.89218 4.49400 176 ft 74 kts 70°
2026-05-01 09:51 50.89476 4.50524 177 ft 141 kts 70°
2026-05-01 09:52 50.89840 4.52064 697 ft 150 kts 74°
2026-05-01 09:52 50.90299 4.53581 1421 ft 155 kts 66°
2026-05-01 09:52 50.90810 4.55097 2094 ft 157 kts 69°
2026-05-01 09:52 50.91304 4.56639 2734 ft 157 kts 68°
2026-05-01 09:53 50.91799 4.58192 3379 ft 158 kts 68°
2026-05-01 09:53 50.92317 4.59827 3817 ft 177 kts 68°
2026-05-01 09:53 50.92903 4.61678 4150 ft 201 kts 67°
2026-05-01 09:53 50.93567 4.63782 4567 ft 225 kts 69°
2026-05-01 09:54 50.94116 4.66228 5055 ft 248 kts 76°
2026-05-01 09:54 50.94642 4.68952 5694 ft 265 kts 77°
2026-05-01 09:54 50.95172 4.71780 6658 ft 269 kts 78°
2026-05-01 09:54 50.95421 4.74695 7618 ft 266 kts 96°
2026-05-01 09:55 50.95065 4.77558 8550 ft 266 kts 114°
2026-05-01 09:55 50.94140 4.80087 9482 ft 267 kts 132°
2026-05-01 09:55 50.92778 4.82109 10397 ft 270 kts 141°
2026-05-01 09:55 50.91316 4.84145 10857 ft 292 kts 139°
2026-05-01 09:56 50.89751 4.86390 11160 ft 315 kts 139°
2026-05-01 09:56 50.88074 4.88825 11410 ft 339 kts 139°
2026-05-01 09:56 50.86279 4.91436 11581 ft 361 kts 138°
2026-05-01 09:56 50.84394 4.94170 12042 ft 372 kts 138°
2026-05-01 09:57 50.82468 4.96951 12700 ft 377 kts 139°
2026-05-01 09:57 50.80511 4.99764 13390 ft 382 kts 139°
2026-05-01 09:57 50.78532 5.02593 14059 ft 386 kts 139°
2026-05-01 09:57 50.76526 5.05451 14676 ft 390 kts 139°
2026-05-01 09:58 50.74503 5.08328 15298 ft 393 kts 139°
2026-05-01 09:58 50.72457 5.11233 15902 ft 396 kts 139°
2026-05-01 09:58 50.70402 5.14150 16473 ft 400 kts 139°
2026-05-01 09:58 50.68323 5.17096 17023 ft 404 kts 138°
2026-05-01 09:59 50.66226 5.20070 17562 ft 407 kts 138°
2026-05-01 09:59 50.64111 5.23067 18099 ft 411 kts 138°
2026-05-01 09:59 50.61978 5.26083 18609 ft 414 kts 138°
2026-05-01 09:59 50.59827 5.29122 19041 ft 417 kts 138°
2026-05-01 10:00 50.57658 5.32183 19491 ft 420 kts 138°
2026-05-01 10:00 50.55476 5.35260 19921 ft 423 kts 138°
2026-05-01 10:00 50.53272 5.38361 20350 ft 426 kts 138°
2026-05-01 10:00 50.51052 5.41479 20777 ft 429 kts 138°
2026-05-01 10:01 50.48821 5.44608 21202 ft 432 kts 138°
2026-05-01 10:01 50.46573 5.47760 21593 ft 435 kts 138°
2026-05-01 10:01 50.44310 5.50927 21983 ft 437 kts 138°
2026-05-01 10:01 50.42031 5.54113 22392 ft 439 kts 138°
2026-05-01 10:02 50.39739 5.57311 22704 ft 444 kts 137°
2026-05-01 10:02 50.37450 5.60501 22991 ft 449 kts 137°
2026-05-01 10:02 50.35109 5.63761 23341 ft 451 kts 137°
2026-05-01 10:02 50.32753 5.67036 23675 ft 455 kts 137°
2026-05-01 10:03 50.30383 5.70323 24020 ft 456 kts 137°
2026-05-01 10:03 50.28105 5.73802 24279 ft 459 kts 130°
2026-05-01 10:03 50.26198 5.77790 24602 ft 459 kts 121°
2026-05-01 10:03 50.24719 5.82192 24957 ft 458 kts 112°
2026-05-01 10:04 50.23688 5.86904 25217 ft 460 kts 104°
2026-05-01 10:04 50.22881 5.91763 25470 ft 463 kts 104°
2026-05-01 10:04 50.22061 5.96620 25784 ft 463 kts 104°
2026-05-01 10:04 50.21232 6.01490 26033 ft 466 kts 104°
2026-05-01 10:05 50.20392 6.06395 26253 ft 469 kts 104°
2026-05-01 10:05 50.19546 6.11302 26635 ft 467 kts 104°
2026-05-01 10:05 50.18790 6.16216 27052 ft 466 kts 99°
2026-05-01 10:05 50.18476 6.21241 27414 ft 465 kts 91°
2026-05-01 10:06 50.18647 6.26261 27855 ft 463 kts 84°
2026-05-01 10:06 50.18979 6.31252 28259 ft 462 kts 84°
2026-05-01 10:06 50.19294 6.36241 28702 ft 461 kts 84°
2026-05-01 10:06 50.19598 6.41211 29155 ft 460 kts 84°
2026-05-01 10:07 50.19896 6.46175 29580 ft 459 kts 83°
2026-05-01 10:07 50.20191 6.51137 30037 ft 458 kts 84°
2026-05-01 10:07 50.20486 6.56092 30430 ft 459 kts 83°
2026-05-01 10:07 50.20779 6.61036 30847 ft 457 kts 83°
2026-05-01 10:08 50.21366 6.70915 31601 ft 456 kts 84°
2026-05-01 10:08 50.21661 6.75841 31990 ft 456 kts 84°
2026-05-01 10:08 50.21955 6.80769 32372 ft 456 kts 84°
2026-05-01 10:09 50.22122 6.85700 32790 ft 455 kts 90°
2026-05-01 10:09 50.21913 6.90636 33156 ft 455 kts 94°
2026-05-01 10:09 50.21654 6.95560 33539 ft 455 kts 94°
2026-05-01 10:09 50.21394 7.00487 33895 ft 455 kts 94°
2026-05-01 10:10 50.21132 7.05405 34268 ft 455 kts 93°
2026-05-01 10:10 50.20870 7.10325 34636 ft 454 kts 94°
2026-05-01 10:10 50.20343 7.20153 35261 ft 455 kts 94°
2026-05-01 10:11 50.19803 7.29983 35359 ft 454 kts 95°
2026-05-01 10:11 50.18309 7.39559 35356 ft 456 kts 106°
2026-05-01 10:12 50.16725 7.47388 35360 ft 455 kts 105°
2026-05-01 10:13 50.13567 7.63096 35365 ft 455 kts 105°
2026-05-01 10:13 50.11658 7.72496 35367 ft 455 kts 106°
2026-05-01 10:14 50.08773 7.86578 35366 ft 455 kts 106°
2026-05-01 10:14 50.06842 7.95976 35364 ft 456 kts 105°
2026-05-01 10:15 50.04900 8.05374 35363 ft 456 kts 106°
2026-05-01 10:15 50.02947 8.14775 35359 ft 457 kts 106°
2026-05-01 10:16 50.00987 8.24160 35371 ft 457 kts 106°
2026-05-01 10:17 49.98029 8.38266 35356 ft 458 kts 106°
2026-05-01 10:17 49.94955 8.52341 35363 ft 460 kts 112°
2026-05-01 10:18 49.90292 8.65420 35362 ft 462 kts 118°
2026-05-01 10:19 49.87099 8.74065 35363 ft 462 kts 118°
2026-05-01 10:19 49.83893 8.82702 35367 ft 462 kts 118°
2026-05-01 10:20 49.79081 8.95620 35379 ft 461 kts 118°
2026-05-01 10:20 49.75874 9.04220 35377 ft 461 kts 118°
2026-05-01 10:21 49.71044 9.17097 35364 ft 462 kts 118°
2026-05-01 10:22 49.66204 9.29905 35144 ft 449 kts 118°
2026-05-01 10:22 49.63084 9.38125 33992 ft 442 kts 118°
2026-05-01 10:23 49.61401 9.42095 33234 ft 444 kts 126°
2026-05-01 10:23 49.57374 9.49258 32075 ft 438 kts 129°
2026-05-01 10:23 49.55378 9.52764 31548 ft 433 kts 129°
2026-05-01 10:24 49.51444 9.59680 30522 ft 425 kts 129°
2026-05-01 10:24 49.47575 9.66447 29372 ft 417 kts 129°
2026-05-01 10:25 49.43774 9.73061 28260 ft 409 kts 129°
2026-05-01 10:25 49.40039 9.79538 27217 ft 401 kts 129°
2026-05-01 10:26 49.38196 9.82731 26725 ft 398 kts 129°
2026-05-01 10:26 49.36369 9.85894 26260 ft 394 kts 129°
2026-05-01 10:26 49.32754 9.92136 25443 ft 388 kts 129°
2026-05-01 10:27 49.29773 9.97276 25350 ft 389 kts 129°
2026-05-01 10:27 49.26203 10.03413 24473 ft 383 kts 129°
2026-05-01 10:28 49.23866 10.07422 23909 ft 379 kts 129°
2026-05-01 10:28 49.20942 10.12419 23067 ft 374 kts 129°
2026-05-01 10:28 49.19217 10.15367 22614 ft 370 kts 129°
2026-05-01 10:29 49.15820 10.21176 21699 ft 363 kts 129°
2026-05-01 10:29 49.14146 10.24035 21257 ft 359 kts 129°
2026-05-01 10:30 49.10772 10.29583 20364 ft 354 kts 130°
2026-05-01 10:30 49.07395 10.34958 19496 ft 348 kts 131°
2026-05-01 10:31 49.04076 10.40236 18643 ft 342 kts 131°
2026-05-01 10:31 49.00810 10.45450 17731 ft 337 kts 130°
2026-05-01 10:32 48.97598 10.50583 16848 ft 332 kts 130°
2026-05-01 10:32 48.96012 10.53115 16433 ft 330 kts 130°
2026-05-01 10:32 48.92837 10.58112 15575 ft 328 kts 133°
2026-05-01 10:33 48.89639 10.62981 14737 ft 324 kts 130°
2026-05-01 10:33 48.86588 10.67985 13914 ft 320 kts 130°
2026-05-01 10:34 48.85072 10.70448 13498 ft 318 kts 130°
2026-05-01 10:34 48.83557 10.72882 13291 ft 317 kts 130°
2026-05-01 10:34 48.82055 10.75275 13025 ft 309 kts 130°
2026-05-01 10:35 48.79136 10.79878 12513 ft 297 kts 131°
2026-05-01 10:35 48.77715 10.82107 12258 ft 292 kts 131°
2026-05-01 10:35 48.76332 10.84276 12007 ft 289 kts 131°
2026-05-01 10:35 48.74941 10.86454 11756 ft 287 kts 131°
2026-05-01 10:36 48.72186 10.90763 11254 ft 283 kts 131°
2026-05-01 10:36 48.70822 10.92897 10926 ft 280 kts 131°
2026-05-01 10:36 48.69475 10.95009 10600 ft 278 kts 131°
2026-05-01 10:37 48.68136 10.97105 10268 ft 276 kts 131°
2026-05-01 10:37 48.65468 11.01263 9531 ft 273 kts 131°
2026-05-01 10:37 48.64082 11.03223 9370 ft 274 kts 136°
2026-05-01 10:38 48.62636 11.05117 9382 ft 276 kts 137°
2026-05-01 10:38 48.61171 11.06990 9383 ft 275 kts 137°
2026-05-01 10:38 48.59706 11.08846 9381 ft 274 kts 137°
2026-05-01 10:38 48.58245 11.10699 9382 ft 275 kts 137°
2026-05-01 10:39 48.56784 11.12562 9384 ft 275 kts 137°
2026-05-01 10:39 48.55351 11.14455 9169 ft 272 kts 135°
2026-05-01 10:39 48.53965 11.16390 8914 ft 271 kts 134°
2026-05-01 10:39 48.52590 11.18322 8657 ft 269 kts 135°
2026-05-01 10:40 48.51219 11.20254 8406 ft 270 kts 134°
2026-05-01 10:40 48.49856 11.22175 8152 ft 267 kts 135°
2026-05-01 10:40 48.48503 11.24092 7901 ft 267 kts 134°
2026-05-01 10:40 48.47158 11.26011 7653 ft 266 kts 134°
2026-05-01 10:41 48.45818 11.27946 7410 ft 266 kts 134°
2026-05-01 10:41 48.44488 11.29846 7170 ft 262 kts 134°
2026-05-01 10:41 48.41838 11.33605 6681 ft 260 kts 134°
2026-05-01 10:42 48.40524 11.35455 6424 ft 257 kts 134°
2026-05-01 10:42 48.39220 11.37288 6165 ft 257 kts 135°
2026-05-01 10:42 48.37924 11.39129 5912 ft 256 kts 134°
2026-05-01 10:42 48.36638 11.40967 5660 ft 252 kts 134°
2026-05-01 10:43 48.35386 11.42743 5430 ft 244 kts 135°
2026-05-01 10:43 48.34177 11.44480 5182 ft 238 kts 134°
2026-05-01 10:43 48.33033 11.46235 5013 ft 229 kts 125°
2026-05-01 10:43 48.32324 11.48296 4922 ft 218 kts 107°
2026-05-01 10:44 48.32133 11.50500 4747 ft 211 kts 88°
2026-05-01 10:44 48.32292 11.52680 4475 ft 210 kts 84°
2026-05-01 10:44 48.32473 11.54868 4155 ft 212 kts 84°
2026-05-01 10:44 48.32660 11.57062 3872 ft 211 kts 83°
2026-05-01 10:45 48.32846 11.59239 3587 ft 208 kts 84°
2026-05-01 10:45 48.33004 11.61363 3337 ft 201 kts 85°
2026-05-01 10:45 48.33168 11.63372 3051 ft 190 kts 84°
2026-05-01 10:45 48.33321 11.65262 2914 ft 173 kts 85°
2026-05-01 10:46 48.33453 11.66975 2669 ft 159 kts 84°
2026-05-01 10:46 48.33575 11.68590 2389 ft 151 kts 84°
2026-05-01 10:46 48.33690 11.70101 2153 ft 140 kts 84°
2026-05-01 10:46 48.33794 11.71498 1972 ft 130 kts 83°
2026-05-01 10:47 48.33893 11.72801 1847 ft 123 kts 82°
2026-05-01 10:47 48.34000 11.74090 1678 ft 125 kts 84°
2026-05-01 10:47 48.34094 11.75391 1509 ft 123 kts 84°
2026-05-01 10:47 48.34176 11.76513 1479 ft 91 kts 83°
2026-05-01 10:48 48.34230 11.77204 1485 ft 42 kts 83°
2026-05-01 10:48 48.34295 11.77480 1485 ft 21 kts 57°
2026-05-01 10:48 48.34366 11.77636 1480 ft 18 kts 53°
2026-05-01 10:48 48.34442 11.77789 1485 ft 18 kts 53°
2026-05-01 10:49 48.34511 11.77929 1485 ft 10 kts 53°
2026-05-01 10:49 48.34556 11.78024 1485 ft 12 kts 59°
2026-05-01 10:49 48.34574 11.78146 1485 ft 13 kts 84°
2026-05-01 10:49 48.34584 11.78281 1483 ft 13 kts 83°
2026-05-01 10:50 48.34595 11.78424 1481 ft 14 kts 83°
2026-05-01 10:50 48.34607 11.78575 1485 ft 15 kts 83°
2026-05-01 10:50 48.34620 11.78734 1485 ft 16 kts 82°
2026-05-01 10:50 48.34631 11.78900 1485 ft 16 kts 84°
2026-05-01 10:51 48.34645 11.79072 1485 ft 17 kts 83°
2026-05-01 10:51 48.34659 11.79251 1485 ft 18 kts 83°
2026-05-01 10:51 48.34673 11.79435 1485 ft 18 kts 84°
2026-05-01 10:51 48.34686 11.79607 1482 ft 14 kts 83°
2026-05-01 10:52 48.34717 11.79717 1483 ft 9 kts 18°
2026-05-01 10:52 48.34773 11.79709 1485 ft 7 kts 344°
2026-05-01 10:52 48.34793 11.79705 1480 ft 0 kts 353°
2026-05-01 10:52 48.34796 11.79704 1485 ft 1 kts 353°
2026-05-01 10:53 48.34813 11.79702 1485 ft 4 kts 354°
2026-05-01 10:53 48.34846 11.79697 1481 ft 6 kts 355°
2026-05-01 10:53 48.34896 11.79688 1482 ft 8 kts 353°
2026-05-01 10:53 48.34962 11.79671 1483 ft 11 kts 335°
2026-05-01 10:54 48.34991 11.79568 1485 ft 12 kts 289°
2026-05-01 10:54 48.35070 11.79521 1485 ft 13 kts 353°
2026-05-01 10:54 48.35106 11.79464 1485 ft 7 kts 259°
2026-05-01 10:54 48.35101 11.79396 1485 ft 6 kts 264°
2026-05-01 10:55 48.35099 11.79367 1476 ft 0 kts 263°